Time,TemperatureF,DewpointF,PressureIn,WindDirection,WindDirectionDegrees,WindSpeedMPH,WindSpeedGustMPH,Humidity,HourlyPrecipIn,Conditions,Clouds,dailyrainin,SoftwareType,DateUTC
2013-01-24 00:01:00,-0.6,-11.0,30.48,NNE,33,5.0,9.0,63,0.00,,,0.00,weatherlink.com 1.10,2013-01-24 06:01:00,
2013-01-24 00:16:00,-0.7,-12.0,30.49,NE,37,4.0,11.0,59,0.00,,,0.00,weatherlink.com 1.10,2013-01-24 06:16:00,
2013-01-24 00:31:00,-0.9,-13.0,30.49,NNE,14,6.0,13.0,58,0.00,,,0.00,weatherlink.com 1.10,2013-01-24 06:31:00,
2013-01-24 00:46:00,-1.1,-12.0,30.50,NE,49,5.0,11.0,59,0.00,,,0.00,weatherlink.com 1.10,2013-01-24 06:46:00,
2013-01-24 01:01:00,-1.3,-12.0,30.50,NE,40,3.0,9.0,60,0.00,,,0.00,weatherlink.com 1.10,2013-01-24 07:01:00,
2013-01-24 01:16:00,-1.5,-12.0,30.49,NE,53,4.0,10.0,60,0.00,,,0.00,weatherlink.com 1.10,2013-01-24 07:16:00,
2013-01-24 01:31:00,-1.8,-14.0,30.51,NNE,12,6.0,11.0,57,0.00,,,0.00,weatherlink.com 1.10,2013-01-24 07:31:00,
2013-01-24 01:46:00,-2.1,-14.0,30.50,NE,53,3.0,14.0,56,0.00,,,0.00,weatherlink.com 1.10,2013-01-24 07:46:00,
2013-01-24 02:01:00,-2.1,-14.0,30.51,NE,47,2.0,9.0,58,0.00,,,0.00,weatherlink.com 1.10,2013-01-24 08:01:00,
2013-01-24 02:16:00,-2.1,-13.0,30.51,NNE,18,4.0,9.0,59,0.00,,,0.00,weatherlink.com 1.10,2013-01-24 08:16:00,
2013-01-24 02:31:00,-2.4,-14.0,30.52,ENE,61,7.0,10.0,58,0.00,,,0.00,weatherlink.com 1.10,2013-01-24 08:31:00,
2013-01-24 02:46:00,-2.5,-14.0,30.52,ENE,59,5.0,9.0,58,0.00,,,0.00,weatherlink.com 1.10,2013-01-24 08:46:00,
2013-01-24 03:01:00,-2.6,-14.0,30.53,NE,56,4.0,10.0,59,0.00,,,0.00,weatherlink.com 1.10,2013-01-24 09:01:00,
2013-01-24 03:16:00,-2.7,-14.0,30.54,NE,55,4.0,9.0,59,0.00,,,0.00,weatherlink.com 1.10,2013-01-24 09:16:00,
2013-01-24 03:32:00,-2.6,-13.0,30.55,NE,34,2.0,7.0,60,0.00,,,0.00,weatherlink.com 1.10,2013-01-24 09:32:00,
2013-01-24 03:47:00,-2.8,-14.0,30.55,NE,55,2.0,10.0,59,0.00,,,0.00,weatherlink.com 1.10,2013-01-24 09:47:00,
2013-01-24 04:02:00,-2.8,-14.0,30.54,ENE,57,7.0,8.0,60,0.00,,,0.00,weatherlink.com 1.10,2013-01-24 10:02:00,
2013-01-24 04:17:00,-2.8,-14.0,30.56,ENE,58,2.0,7.0,60,0.00,,,0.00,weatherlink.com 1.10,2013-01-24 10:17:00,
2013-01-24 04:32:00,-2.7,-13.0,30.55,ENE,57,5.0,8.0,61,0.00,,,0.00,weatherlink.com 1.10,2013-01-24 10:32:00,
2013-01-24 04:47:00,-2.8,-14.0,30.54,North,9,5.0,10.0,59,0.00,,,0.00,weatherlink.com 1.10,2013-01-24 10:47:00,
2013-01-24 05:02:00,-2.8,-14.0,30.52,NE,52,4.0,8.0,60,0.00,,,0.00,weatherlink.com 1.10,2013-01-24 11:02:00,
2013-01-24 05:17:00,-3.0,-14.0,30.52,ENE,57,8.0,8.0,60,0.00,,,0.00,weatherlink.com 1.10,2013-01-24 11:17:00,
2013-01-24 05:32:00,-3.0,-13.0,30.52,ENE,57,0.0,8.0,61,0.00,,,0.00,weatherlink.com 1.10,2013-01-24 11:32:00,
2013-01-24 05:47:00,-3.0,-13.0,30.54,NE,56,0.0,5.0,61,0.00,,,0.00,weatherlink.com 1.10,2013-01-24 11:47:00,
2013-01-24 06:03:00,-3.0,-13.0,30.55,ENE,59,3.0,6.0,61,0.00,,,0.00,weatherlink.com 1.10,2013-01-24 12:03:00,
2013-01-24 06:17:00,-2.9,-13.0,30.54,NE,38,4.0,6.0,61,0.00,,,0.00,weatherlink.com 1.10,2013-01-24 12:17:00,
2013-01-24 06:32:00,-2.8,-13.0,30.55,NE,55,3.0,5.0,62,0.00,,,0.00,weatherlink.com 1.10,2013-01-24 12:32:00,
2013-01-24 06:47:00,-2.8,-13.0,30.56,NE,55,0.0,5.0,62,0.00,,,0.00,weatherlink.com 1.10,2013-01-24 12:47:00,
2013-01-24 07:03:00,-2.6,-13.0,30.56,NE,55,0.0,4.0,62,0.00,,,0.00,weatherlink.com 1.10,2013-01-24 13:03:00,
2013-01-24 07:19:00,-2.2,-12.0,30.56,East,84,0.0,6.0,62,0.00,,,0.00,weatherlink.com 1.10,2013-01-24 13:19:00,
2013-01-24 07:33:00,-2.2,-12.0,30.57,East,85,2.0,5.0,62,0.00,,,0.00,weatherlink.com 1.10,2013-01-24 13:33:00,
2013-01-24 07:48:00,-2.0,-12.0,30.57,ESE,119,1.0,4.0,63,0.00,,,0.00,weatherlink.com 1.10,2013-01-24 13:48:00,
2013-01-24 08:03:00,-1.7,-12.0,30.57,ESE,117,2.0,4.0,63,0.00,,,0.00,weatherlink.com 1.10,2013-01-24 14:03:00,
2013-01-24 08:18:00,-1.4,-12.0,30.56,ESE,115,2.0,4.0,62,0.00,,,0.00,weatherlink.com 1.10,2013-01-24 14:18:00,
2013-01-24 08:33:00,-1.0,-11.0,30.55,ESE,117,1.0,3.0,63,0.00,,,0.00,weatherlink.com 1.10,2013-01-24 14:33:00,
2013-01-24 08:48:00,-0.7,-11.0,30.55,ESE,114,3.0,5.0,63,0.00,,,0.00,weatherlink.com 1.10,2013-01-24 14:48:00,
2013-01-24 09:03:00,0.1,-10.0,30.54,SE,145,1.0,4.0,62,0.00,,,0.00,weatherlink.com 1.10,2013-01-24 15:03:00,
2013-01-24 09:18:00,0.4,-10.0,30.54,SE,126,3.0,6.0,62,0.00,,,0.00,weatherlink.com 1.10,2013-01-24 15:18:00,
2013-01-24 09:33:00,0.7,-10.0,30.55,East,86,1.0,9.0,61,0.00,,,0.00,weatherlink.com 1.10,2013-01-24 15:33:00,
2013-01-24 09:48:00,1.2,-9.0,30.54,ESE,121,0.0,11.0,61,0.00,,,0.00,weatherlink.com 1.10,2013-01-24 15:48:00,
2013-01-24 10:04:00,1.7,-9.0,30.53,ESE,121,4.0,10.0,60,0.00,,,0.00,weatherlink.com 1.10,2013-01-24 16:04:00,
2013-01-24 10:19:00,2.5,-8.0,30.53,SE,128,2.0,9.0,61,0.00,,,0.00,weatherlink.com 1.10,2013-01-24 16:19:00,
2013-01-24 10:34:00,3.3,-8.0,30.54,SE,137,3.0,6.0,60,0.00,,,0.00,weatherlink.com 1.10,2013-01-24 16:34:00,
2013-01-24 10:49:00,4.4,-8.0,30.52,SSE,152,3.0,8.0,58,0.00,,,0.00,weatherlink.com 1.10,2013-01-24 16:49:00,
2013-01-24 11:04:00,5.0,-8.0,30.53,SSE,164,2.0,7.0,56,0.00,,,0.00,weatherlink.com 1.10,2013-01-24 17:04:00,
2013-01-24 11:19:00,5.8,-7.0,30.54,SE,138,5.0,6.0,56,0.00,,,0.00,weatherlink.com 1.10,2013-01-24 17:19:00,
2013-01-24 11:34:00,6.0,-8.0,30.52,SE,129,2.0,9.0,54,0.00,,,0.00,weatherlink.com 1.10,2013-01-24 17:34:00,
2013-01-24 11:49:00,6.9,-7.0,30.51,South,175,4.0,8.0,52,0.00,,,0.00,weatherlink.com 1.10,2013-01-24 17:49:00,
2013-01-24 12:04:00,7.5,-7.0,30.50,SE,131,4.0,7.0,51,0.00,,,0.00,weatherlink.com 1.10,2013-01-24 18:04:00,
2013-01-24 12:19:00,8.0,-7.0,30.48,South,175,6.0,12.0,51,0.00,,,0.00,weatherlink.com 1.10,2013-01-24 18:19:00,
2013-01-24 12:34:00,8.2,-7.0,30.48,SE,140,2.0,8.0,49,0.00,,,0.00,weatherlink.com 1.10,2013-01-24 18:34:00,
2013-01-24 12:50:00,8.8,-7.0,30.48,SSE,165,3.0,9.0,48,0.00,,,0.00,weatherlink.com 1.10,2013-01-24 18:50:00,
2013-01-24 13:04:00,9.0,-8.0,30.45,ESE,117,7.0,11.0,46,0.00,,,0.00,weatherlink.com 1.10,2013-01-24 19:04:00,
2013-01-24 13:19:00,9.8,-8.0,30.43,SE,138,7.0,10.0,44,0.00,,,0.00,weatherlink.com 1.10,2013-01-24 19:19:00,
2013-01-24 13:34:00,9.9,-9.0,30.41,SE,142,5.0,10.0,43,0.00,,,0.00,weatherlink.com 1.10,2013-01-24 19:34:00,
2013-01-24 13:49:00,10.4,-9.0,30.40,SSE,163,4.0,9.0,41,0.00,,,0.00,weatherlink.com 1.10,2013-01-24 19:49:00,
2013-01-24 14:05:00,11.1,-8.0,30.39,SE,138,1.0,10.0,41,0.00,,,0.00,weatherlink.com 1.10,2013-01-24 20:05:00,
2013-01-24 14:20:00,11.9,-8.0,30.38,SE,132,7.0,8.0,41,0.00,,,0.00,weatherlink.com 1.10,2013-01-24 20:20:00,
2013-01-24 14:35:00,11.7,-8.0,30.38,SE,132,5.0,8.0,40,0.00,,,0.00,weatherlink.com 1.10,2013-01-24 20:35:00,
2013-01-24 14:50:00,11.6,-7.0,30.39,South,175,2.0,12.0,43,0.00,,,0.00,weatherlink.com 1.10,2013-01-24 20:50:00,
2013-01-24 15:05:00,11.7,-7.0,30.39,SSE,162,2.0,9.0,43,0.00,,,0.00,weatherlink.com 1.10,2013-01-24 21:05:00,
2013-01-24 15:20:00,11.7,-6.0,30.37,SE,138,6.0,10.0,44,0.00,,,0.00,weatherlink.com 1.10,2013-01-24 21:20:00,
2013-01-24 15:35:00,11.8,-6.0,30.36,SE,138,4.0,7.0,44,0.00,,,0.00,weatherlink.com 1.10,2013-01-24 21:35:00,
2013-01-24 15:50:00,12.3,-6.0,30.34,ESE,113,5.0,9.0,43,0.00,,,0.00,weatherlink.com 1.10,2013-01-24 21:50:00,
2013-01-24 16:06:00,12.0,-7.0,30.34,SE,146,4.0,7.0,43,0.00,,,0.00,weatherlink.com 1.10,2013-01-24 22:06:00,
2013-01-24 16:36:00,11.9,-6.0,30.30,ESE,123,2.0,7.0,44,0.00,,,0.00,weatherlink.com 1.10,2013-01-24 22:36:00,
2013-01-24 16:50:00,11.9,-6.0,30.31,SSE,152,4.0,9.0,44,0.00,,,0.00,weatherlink.com 1.10,2013-01-24 22:50:00,
2013-01-24 17:05:00,11.9,-6.0,30.28,SE,144,3.0,7.0,45,0.00,,,0.00,weatherlink.com 1.10,2013-01-24 23:05:00,
2013-01-24 17:21:00,12.1,-6.0,30.29,SSE,148,3.0,8.0,45,0.00,,,0.00,weatherlink.com 1.10,2013-01-24 23:21:00,
2013-01-24 17:36:00,12.1,-5.0,30.28,SSE,161,2.0,6.0,46,0.00,,,0.00,weatherlink.com 1.10,2013-01-24 23:36:00,
2013-01-24 17:51:00,12.1,-5.0,30.27,SE,134,2.0,9.0,46,0.00,,,0.00,weatherlink.com 1.10,2013-01-24 23:51:00,
2013-01-24 18:06:00,12.1,-5.0,30.27,SSE,157,3.0,9.0,46,0.00,,,0.00,weatherlink.com 1.10,2013-01-25 00:06:00,
2013-01-24 18:21:00,12.2,-5.0,30.27,SSE,154,4.0,12.0,46,0.00,,,0.00,weatherlink.com 1.10,2013-01-25 00:21:00,
2013-01-24 18:36:00,12.3,-5.0,30.26,SE,142,4.0,7.0,46,0.00,,,0.00,weatherlink.com 1.10,2013-01-25 00:36:00,
2013-01-24 18:51:00,12.5,-5.0,30.26,SE,144,3.0,9.0,46,0.00,,,0.00,weatherlink.com 1.10,2013-01-25 00:51:00,
2013-01-24 19:06:00,12.7,-5.0,30.26,SSE,153,3.0,9.0,46,0.00,,,0.00,weatherlink.com 1.10,2013-01-25 01:06:00,
2013-01-24 19:21:00,12.9,-4.0,30.27,SSE,157,2.0,10.0,46,0.00,,,0.00,weatherlink.com 1.10,2013-01-25 01:21:00,
2013-01-24 19:37:00,13.1,-5.0,30.27,SE,131,6.0,10.0,45,0.00,,,0.00,weatherlink.com 1.10,2013-01-25 01:37:00,
2013-01-24 19:52:00,13.3,-5.0,30.25,South,186,3.0,9.0,45,0.00,,,0.00,weatherlink.com 1.10,2013-01-25 01:52:00,
2013-01-24 20:06:00,13.4,-4.0,30.24,SE,134,6.0,11.0,46,0.00,,,0.00,weatherlink.com 1.10,2013-01-25 02:06:00,
2013-01-24 20:21:00,13.4,-4.0,30.21,SE,137,10.0,13.0,47,0.00,,,0.00,weatherlink.com 1.10,2013-01-25 02:21:00,
2013-01-24 20:37:00,13.4,-3.0,30.19,SSE,156,4.0,13.0,48,0.00,,,0.00,weatherlink.com 1.10,2013-01-25 02:37:00,
2013-01-24 20:52:00,13.5,-3.0,30.19,SSE,150,5.0,11.0,49,0.00,,,0.00,weatherlink.com 1.10,2013-01-25 02:52:00,
2013-01-24 21:07:00,13.6,-2.0,30.18,SSE,159,2.0,11.0,50,0.00,,,0.00,weatherlink.com 1.10,2013-01-25 03:07:00,
2013-01-24 21:22:00,13.8,-1.0,30.19,SSE,167,2.0,11.0,51,0.00,,,0.00,weatherlink.com 1.10,2013-01-25 03:22:00,
2013-01-24 21:37:00,14.0,-1.0,30.20,SW,224,5.0,8.0,52,0.00,,,0.00,weatherlink.com 1.10,2013-01-25 03:37:00,
2013-01-24 21:52:00,14.2,-1.0,30.20,SSE,161,4.0,9.0,52,0.00,,,0.00,weatherlink.com 1.10,2013-01-25 03:52:00,
2013-01-24 22:07:00,14.3,0.0,30.17,South,176,1.0,15.0,53,0.00,,,0.00,weatherlink.com 1.10,2013-01-25 04:07:00,
2013-01-24 22:22:00,14.4,0.0,30.18,SSW,199,2.0,11.0,54,0.00,,,0.00,weatherlink.com 1.10,2013-01-25 04:22:00,
2013-01-24 22:37:00,14.6,1.0,30.16,SE,144,3.0,10.0,54,0.00,,,0.00,weatherlink.com 1.10,2013-01-25 04:37:00,
2013-01-24 22:52:00,14.6,1.0,30.15,South,169,4.0,7.0,55,0.00,,,0.00,weatherlink.com 1.10,2013-01-25 04:52:00,
2013-01-24 23:07:00,14.8,2.0,30.15,South,173,5.0,9.0,56,0.00,,,0.00,weatherlink.com 1.10,2013-01-25 05:07:00,
2013-01-24 23:22:00,14.9,2.0,30.17,South,181,4.0,9.0,56,0.00,,,0.00,weatherlink.com 1.10,2013-01-25 05:22:00,
2013-01-24 23:37:00,15.1,2.0,30.18,SSW,207,3.0,8.0,57,0.00,,,0.00,weatherlink.com 1.10,2013-01-25 05:37:00,
2013-01-24 23:52:00,15.2,2.0,30.17,SSW,200,2.0,7.0,57,0.00,,,0.00,weatherlink.com 1.10,2013-01-25 05:52:00,